Location: Alphen
(52.1351°N, 4.6549°E)
Time: 02:04:45
(UTC+00:00)

COSMOS 2428 - Pass Details

Date: 27 January 2021
Orbit: 848 x 855 km, 70.9° (Epoch: 26 February)

Event Time Altitude Azimuth Distance (km) Brightness Sun altitude
Exits shadow 06:07:08 16° 302° (WNW) 2,114 4.2 -12.5°
Maximum altitude 06:09:23 19° 331° (NNW) 1,920 4.2 -12.1°
Drops below altitude 10° 06:13:23 10° 15° (NNE) 2,486 5.2 -11.5°
Sets 06:16:36 0° 33° (NNE) 3,425 6.1 -11.1°
